[TLELIST] Archives

 

Current TLEs

April 6th 2008 PDT

PUBLIC "-//W3C//DTD XHTML 1.0 Transitional//EN" "http://www.w3.org/TR/xhtml1/DTD/xhtml1-transitional.dtd"> ____________________________________________________________________ These 2-Line Elements (TLEs) are direct from DoD/ USSTRATCOM/ US Space Command with permission. Updates are provided automatically daily. By receiving this email, you agree not to transfer any data or information received under this agreement, including the analysis of tracking data, to any other entity without the ...Continue Reading

Current TLEs

April 5th 2008 PDT

HST 1 20580U 90037B 08093.37877690 +.00000498 +00000-0 +25788-4 0 01190 2 20580 028.4681 097.6522 0003613 297.1541 062.8678 15.00359217783580 ISS (ZARYA) 1 25544U 98067A 08095.45847442 .00024808 00000-0 15318-3 0 2468 2 25544 051.6431 036.4627 0001015 006.4199 099.0735 15.76979193536897 CXO 1 25867U 99040B 08096.20833333 .00000495 00000-0 10000-3 0 1835 2 25867 063.4178 082.3805 6707138 279.8320 002.5981 00.37810414 3352 ____________________________________________________________________ These 2-Line ...Continue Reading

Current TLEs

April 4th 2008 PDT

HST 1 20580U 90037B 08094.24353647 .00000492 00000-0 25327-4 0 1067 2 20580 028.4680 092.0133 0003613 306.3680 053.6575 15.00359743783716 ISS (ZARYA) 1 25544U 98067A 08094.37863660 .00022061 00000-0 13706-3 0 2387 2 25544 051.6424 042.0335 0001091 358.2273 092.8479 15.76918613536721 CXO 1 25867U 99040B 08093.50000000 .00000459 00000-0 10000-3 0 1821 2 25867 063.3975 082.4567 6702413 279.8262 353.9680 00.37807914 3347 ____________________________________________________________________ These 2-Line ...Continue Reading

Current TLEs

April 3rd 2008 PDT

HST 1 20580U 90037B 08092.44749717 .00000502 00000-0 26060-4 0 1050 2 20580 028.4680 103.7249 0003640 287.1383 072.8805 15.00358615783446 ISS (ZARYA) 1 25544U 98067A 08093.49430794 .00027622 00000-0 17073-3 0 2319 2 25544 051.6427 046.5942 0001132 354.3801 113.1231 15.76887796536581 CXO 1 25867U 99040B 08093.50000000 .00000459 00000-0 10000-3 0 1821 2 25867 063.3975 082.4567 6702413 279.8262 353.9680 00.37807914 3347 ____________________________________________________________________ These 2-Line ...Continue Reading

Current TLEs

April 2nd 2008 PDT

HST 1 20580U 90037B 08090.45189792 +.00000486 +00000-0 +24866-4 0 01132 2 20580 028.4679 116.7380 0003628 266.7961 093.2212 15.00357096783143 ISS (ZARYA) 1 25544U 98067A 08092.47953824 .00033270 00000-0 20513-3 0 2241 2 25544 051.6428 051.8280 0000752 356.5189 106.5638 15.76839566536428 CXO 1 25867U 99040B 08090.87500000 .00000368 00000-0 10000-3 0 1811 2 25867 063.3837 082.5150 6697528 279.8405 356.6342 00.37806438 3336 ____________________________________________________________________ These 2-Line ...Continue Reading

Current TLEs

April 1st 2008 PDT

HST 1 20580U 90037B 08089.45409846 +.00000438 +00000-0 +21131-4 0 01145 2 20580 028.4679 123.2484 0003663 254.8112 105.2075 15.00356081782992 ISS (ZARYA) 1 25544U 98067A 08091.52964319 .00015048 00000-0 95426-4 0 2189 2 25544 051.6420 056.7266 0001248 339.6924 127.6619 15.76775164536277 CXO 1 25867U 99040B 08090.87500000 .00000368 00000-0 10000-3 0 1811 2 25867 063.3837 082.5150 6697528 279.8405 356.6342 00.37806438 3336 ____________________________________________________________________ These 2-Line ...Continue Reading

Current TLEs

March 31st 2008 PDT

HST 1 20580U 90037B 08090.18581840 .00000450 00000-0 22004-4 0 1034 2 20580 028.4680 118.4767 0003731 262.0630 097.9543 15.00356594783106 ISS (ZARYA) 1 25544U 98067A 08090.51450352 .00039077 00000-0 24120-3 0 2117 2 25544 051.6410 061.9599 0000534 348.2103 113.0468 15.76733677536112 CXO 1 25867U 99040B 08090.87500000 .00000368 00000-0 10000-3 0 1811 2 25867 063.3837 082.5150 6697528 279.8405 356.6342 00.37806438 3336 ____________________________________________________________________ These 2-Line ...Continue Reading

Current TLEs

March 30th 2008 PDT

HST 1 20580U 90037B 08088.45629801 .00000406 00000-0 18571-4 0 1025 2 20580 028.4679 129.7560 0003753 244.3208 115.6992 15.00355291782847 ISS (ZARYA) 1 25544U 98067A 08089.49970104 .00017043 00000-0 10822-3 0 2050 2 25544 051.6421 067.1864 0000903 359.9434 097.2772 15.76627819535955 CXO 1 25867U 99040B 08088.25000000 .00000288 00000-0 10000-3 0 1805 2 25867 063.3728 082.5745 6692224 279.8670 359.2686 00.37806292 3324 ____________________________________________________________________ These 2-Line ...Continue Reading

Current TLEs

March 29th 2008 PDT

HST 1 20580U 90037B 08086.46069789 +.00000371 +00000-0 +15883-4 0 01122 2 20580 028.4673 142.7809 0003907 224.8613 135.1662 15.00354077782545 ISS (ZARYA) 1 25544U 98067A 08088.48471299 .00014214 00000-0 91137-4 0 1997 2 25544 051.6418 072.4185 0001054 353.0910 099.3424 15.76580827535794 CXO 1 25867U 99040B 08088.25000000 .00000288 00000-0 10000-3 0 1805 2 25867 063.3728 082.5745 6692224 279.8670 359.2686 00.37806292 3324 ____________________________________________________________________ These 2-Line ...Continue Reading

Current TLEs

March 28th 2008 PDT

HST 1 20580U 90037B 08087.39197717 .00000381 00000-0 16640-4 0 1019 2 20580 028.4678 136.6962 0003820 233.4753 126.5485 15.00354563782689 ISS (ZARYA) 1 25544U 98067A 08087.35392708 .00010644 00000-0 69403-4 0 1926 2 25544 051.6420 078.2530 0000589 331.8446 178.3171 15.76538666535617 CXO 1 25867U 99040B 08088.25000000 .00000288 00000-0 10000-3 0 1805 2 25867 063.3728 082.5745 6692224 279.8670 359.2686 00.37806292 3324 ____________________________________________________________________ These 2-Line ...Continue Reading
  • This mailing list is a public mailing list - anyone may join or leave, at any time.
  • This mailing list is announce-only.

International Space Station (ISS) / Hubble Space Telescope (HST) / Chandra X-Ray Observatory Orbital Data via EMAIL

Privacy Policy:

Private list